K8JWL-13 Weather Reports


Display with metric or nautical units.
time (UTC)temp
F
wind
direction
speed
MPH
gust
MPH
rain 1hr
in
rain 24hr
in
rain mn
in
humidity
%
barometer
mb
20260903145350 85 215 2.0 0.0 185.39 0.00 0.00 63 1017.1
20260903141350 83 325 2.0 0.0 185.39 0.00 0.00 67 1017.0
20260903135850 83 229 0.0 0.0 185.39 0.00 0.00 69 1017.1
20260903135350 82 229 0.0 0.0 185.39 0.00 0.00 69 1017.2
20260903133850 81 229 0.0 0.0 185.39 0.00 0.00 71 1017.1
20260903132350 80 229 0.0 0.0 185.39 0.00 0.00 73 1017.2
20260903131350 80 229 0.0 0.0 185.39 0.00 0.00 74 1017.3
20260903125350 79 229 0.0 0.0 185.39 0.00 0.00 77 1017.4
20260903124350 78 229 0.0 0.0 185.39 0.00 0.00 78 1017.5
20260903122850 77 229 0.0 0.0 185.39 0.00 0.00 79 1017.5
20260903122351 77 229 0.0 0.0 185.39 0.00 0.00 79 1017.6
20260903115850 76 229 0.0 0.0 185.39 0.00 0.00 81 1017.5
20260903115350 76 229 0.0 0.0 185.39 0.00 0.00 81 1017.5
20260903114850 76 229 0.0 0.0 185.39 0.00 0.00 80 1017.4
20260903114350 76 229 0.0 0.0 185.39 0.00 0.00 80 1017.4
20260903113350 76 238 0.0 0.0 185.39 0.00 0.00 80 1017.3
20260903112350 76 172 0.0 0.0 185.39 0.00 0.00 80 1017.2
20260903111350 76 340 1.0 0.0 185.39 0.00 0.00 80 1017.1
20260903110850 77 271 0.0 0.0 185.39 0.00 0.00 80 1017.1
20260903110350 77 257 1.0 0.0 185.39 0.00 0.00 80 1016.9
20260903105850 77 307 0.0 0.0 185.39 0.00 0.00 80 1016.9
20260903104351 77 243 1.0 0.0 185.39 0.00 0.00 80 1016.7
20260903102850 77 269 1.0 0.0 185.39 0.00 0.00 79 1016.6
20260903101350 77 257 0.0 0.0 185.39 0.00 0.00 79 1016.7
20260903100850 77 295 4.0 0.0 185.39 0.00 0.00 79 1016.6
20260903100350 77 256 0.0 0.0 185.39 0.00 0.00 79 1016.6
20260903094851 77 245 0.0 0.0 185.39 0.00 0.00 78 1016.6
20260903094351 77 245 0.0 0.0 185.39 0.00 0.00 78 1016.5
20260903093850 77 245 0.0 0.0 185.39 0.00 0.00 78 1016.5
20260903093350 77 245 0.0 0.0 185.39 0.00 0.00 78 1016.5
20260903092850 77 245 0.0 0.0 185.39 0.00 0.00 78 1016.5
20260903092350 77 245 0.0 0.0 185.39 0.00 0.00 78 1016.4
20260903091350 78 245 0.0 0.0 185.39 0.00 0.00 78 1016.4
20260903084850 78 245 0.0 0.0 185.39 0.00 0.00 79 1016.4
20260903083850 77 245 0.0 0.0 185.39 0.00 0.00 79 1016.4
20260903083514 77 245 0.0 0.0 185.39 0.00 0.00 79 1016.5
20260903083350 77 245 0.0 0.0 185.39 0.00 0.00 79 1016.5
20260903083010 77 245 0.0 0.0 185.39 0.00 0.00 79 1016.5
20260903082850 77 245 0.0 0.0 185.39 0.00 0.00 79 1016.5
20260903082513 78 245 0.0 0.0 185.39 0.00 0.00 79 1016.5
20260903082349 78 245 0.0 0.0 185.39 0.00 0.00 79 1016.5
20260903081514 77 245 0.0 0.0 185.39 0.00 0.00 79 1016.5
20260903081351 77 245 0.0 0.0 185.39 0.00 0.00 79 1016.5
20260903075850 77 245 0.0 0.0 185.39 0.00 0.00 80 1016.5
20260903075349 77 245 0.0 0.0 185.39 0.00 0.00 80 1016.5
20260903073850 77 245 0.0 0.0 185.39 0.00 0.00 80 1016.5
20260903073350 77 245 0.0 0.0 185.39 0.00 0.00 81 1016.5
20260903072851 77 245 0.0 0.0 185.39 0.00 0.00 81 1016.5
20260903072350 77 245 0.0 0.0 185.39 0.00 0.00 81 1016.5
20260903063352 77 245 0.0 0.0 185.39 0.00 0.00 81 1016.7
20260903061350 77 245 0.0 0.0 185.39 0.00 0.00 80 1016.8
20260903060850 77 245 0.0 0.0 185.39 0.00 0.00 80 1016.7
20260903060350 77 245 0.0 0.0 185.39 0.00 0.00 80 1016.7
20260903055349 78 245 0.0 0.0 185.39 0.00 0.00 79 1016.7
20260903054349 78 245 0.0 0.0 185.39 0.00 0.00 79 1016.6
20260903052850 78 245 0.0 0.0 185.39 0.00 0.00 78 1016.6
20260903052349 78 245 0.0 0.0 185.39 0.00 0.00 78 1016.5
20260903050350 79 245 0.0 0.0 185.39 0.00 0.00 77 1016.3
20260903045852 79 245 0.0 0.0 185.39 0.00 0.00 77 1016.3
20260903045349 79 245 0.0 0.0 185.39 0.00 0.00 77 1016.3
20260903044349 79 245 0.0 0.0 185.39 0.00 0.00 77 1016.1
20260903043350 79 245 0.0 0.0 185.39 0.00 0.00 77 1016.1
20260903034515 79 245 0.0 0.0 185.39 0.00 0.00 78 1016.0
20260903034349 79 245 0.0 0.0 185.39 0.00 0.00 78 1016.0
20260903032350 79 245 0.0 0.0 185.39 0.00 0.00 77 1016.3
20260903031349 79 245 0.0 0.0 185.39 0.00 0.00 76 1016.4
20260903030350 80 245 0.0 0.0 185.39 0.00 0.00 77 1016.5
20260903025349 79 245 0.0 0.0 185.39 0.00 0.00 77 1016.6
20260903022027 80 245 0.0 0.0 185.39 0.00 0.00 77 1016.7
20260903021524 80 245 0.0 0.0 185.39 0.00 0.00 77 1016.7
20260903020525 80 245 0.0 0.0 185.39 0.00 0.00 76 1016.7
20260903015526 81 245 0.0 0.0 185.39 0.00 0.00 76 1016.6
20260903014025 81 245 0.0 0.0 185.39 0.00 0.00 75 1016.6
20260903013024 82 245 0.0 0.0 185.39 0.00 0.00 74 1016.6
20260903012525 82 245 0.0 0.0 185.39 0.00 0.00 73 1016.6
20260903011025 83 245 0.0 0.0 185.39 0.00 0.00 72 1016.5
20260903010024 83 245 0.0 0.0 185.39 0.00 0.00 71 1016.5
20260903005526 83 245 0.0 0.0 185.39 0.00 0.00 71 1016.4
20260903005024 83 245 0.0 0.0 185.39 0.00 0.00 70 1016.4
20260903003305 85 245 0.0 0.0 185.39 0.00 0.00 68 1016.2
20260903003024 85 245 0.0 0.0 185.39 0.00 0.00 68 1016.2
20260903002525 85 245 0.0 0.0 185.39 0.00 0.00 67 1016.2
20260903001524 86 245 0.0 0.0 185.39 0.00 0.00 65 1016.1
20260903001025 86 245 0.0 0.0 185.39 0.00 0.00 64 1016.1
20260903000527 87 245 0.0 0.0 185.39 0.00 0.00 63 1016.2
20260903000024 88 245 0.0 0.0 185.39 0.00 0.00 62 1016.2
20260902235525 88 245 0.0 0.0 185.39 0.00 0.00 61 1016.1
20260902234524 89 245 0.0 0.0 185.39 0.00 0.00 59 1016.1
20260902234025 90 245 0.0 0.0 185.39 0.00 0.00 58 1016.0
20260902233526 90 245 0.0 0.0 185.39 0.00 0.00 57 1016.0
20260902233024 91 245 0.0 0.0 185.39 0.00 0.00 56 1016.0
20260902232527 91 245 0.0 0.0 185.39 0.00 0.00 55 1016.0
20260902231526 92 245 0.0 0.0 185.39 0.00 0.00 53 1016.0
20260902231025 93 257 0.0 0.0 185.39 0.00 0.00 52 1016.0
20260902230526 93 257 0.0 0.0 185.39 0.00 0.00 51 1016.0
20260902230024 93 257 0.0 0.0 185.39 0.00 0.00 51 1016.0
20260902225525 94 257 0.0 0.0 185.39 0.00 0.00 49 1016.0
20260902225024 94 257 0.0 0.0 185.39 0.00 0.00 49 1016.1
20260902224524 94 257 0.0 0.0 185.39 0.00 0.00 46 1016.0
20260902224025 95 257 0.0 0.0 185.39 0.00 0.00 46 1016.1
20260902223529 95 257 0.0 0.0 185.39 0.00 0.00 46 1016.0
20260902223024 95 257 0.0 0.0 185.39 0.00 0.00 45 1016.1
20260902222525 95 267 4.0 0.0 185.39 0.00 0.00 43 1016.1
20260902221524 96 184 1.0 0.0 185.39 0.00 0.00 43 1016.1
20260902221025 96 222 0.0 0.0 185.39 0.00 0.00 43 1016.1
20260902220024 96 224 2.0 0.0 185.39 0.00 0.00 42 1016.1
20260902215525 96 259 3.0 0.0 185.39 0.00 0.00 42 1016.2
20260902215024 96 329 4.0 0.0 185.39 0.00 0.00 43 1016.1
20260902214524 96 277 4.0 0.0 185.39 0.00 0.00 42 1016.2
20260902214025 96 217 0.0 0.0 185.39 0.00 0.00 41 1016.2
20260902213525 96 219 0.0 0.0 185.39 0.00 0.00 41 1016.2
20260902212525 96 260 9.0 0.0 185.39 0.00 0.00 40 1016.2
20260902212024 96 11 4.0 0.0 185.39 0.00 0.00 40 1016.2
20260902211524 96 180 1.0 0.0 185.39 0.00 0.00 42 1016.2
20260902211026 96 273 7.0 0.0 185.39 0.00 0.00 42 1016.2
20260902210526 96 315 3.0 0.0 185.39 0.00 0.00 42 1016.3
20260902210024 96 256 5.0 0.0 185.39 0.00 0.00 41 1016.2
20260902205525 96 287 8.0 0.0 185.39 0.00 0.00 41 1016.3
20260902204524 97 294 4.0 0.0 185.39 0.00 0.00 42 1016.4
20260902204024 97 295 3.0 0.0 185.39 0.00 0.00 41 1016.4
20260902203524 97 250 1.0 0.0 185.39 0.00 0.00 42 1016.4
20260902203025 97 295 3.0 0.0 185.39 0.00 0.00 44 1016.5
20260902202524 97 285 3.0 0.0 185.39 0.00 0.00 42 1016.7
20260902202024 96 248 4.0 0.0 185.39 0.00 0.00 43 1016.6
20260902201024 97 156 5.0 0.0 185.39 0.00 0.00 42 1016.7
20260902200525 96 281 5.0 0.0 185.39 0.00 0.00 42 1016.8
20260902200024 96 225 0.0 0.0 185.39 0.00 0.00 45 1016.8
20260902195524 95 257 6.0 0.0 185.39 0.00 0.00 45 1016.9
20260902195025 95 339 1.0 0.0 185.39 0.00 0.00 46 1016.9
20260902194524 95 278 4.0 0.0 185.39 0.00 0.00 46 1017.0
20260902194024 95 276 6.0 0.0 185.39 0.00 0.00 45 1017.0
20260902193525 96 262 4.0 0.0 185.39 0.00 0.00 43 1017.1
20260902193024 96 285 5.0 0.0 185.39 0.00 0.00 45 1017.1
20260902192524 96 267 0.0 0.0 185.39 0.00 0.00 44 1017.1
20260902192025 95 207 0.0 0.0 185.39 0.00 0.00 44 1017.1
20260902191524 96 307 2.0 0.0 185.39 0.00 0.00 43 1017.2
20260902190524 96 146 4.0 0.0 185.39 0.00 0.00 42 1017.3
20260902190024 96 297 4.0 0.0 185.39 0.00 0.00 44 1017.4
20260902185524 96 330 3.0 0.0 185.39 0.00 0.00 44 1017.3
20260902184524 95 284 4.0 0.0 185.39 0.00 0.00 44 1017.5
20260902184025 95 284 6.0 0.0 185.39 0.00 0.00 44 1017.5
20260902183525 95 316 2.0 0.0 185.39 0.00 0.00 45 1017.5
20260902183024 94 318 4.0 0.0 185.39 0.00 0.00 44 1017.6
20260902182524 94 263 9.0 0.0 185.39 0.00 0.00 45 1017.6
20260902182024 94 242 7.0 0.0 185.39 0.00 0.00 46 1017.7
20260902181525 93 242 1.0 0.0 185.39 0.00 0.00 47 1017.7
20260902180527 92 287 5.0 0.0 185.39 0.00 0.00 48 1017.8
20260902175025 91 14 1.0 0.0 185.39 0.00 0.00 53 1017.9
20260902174524 91 215 0.0 0.0 185.39 0.00 0.00 52 1018.0
20260902173024 90 222 0.0 0.0 185.39 0.00 0.00 53 1018.2
20260902172524 90 269 4.0 0.0 185.39 0.00 0.00 54 1018.3
20260902172026 89 298 1.0 0.0 185.39 0.00 0.00 53 1018.4
20260902171524 89 274 4.0 0.0 185.39 0.00 0.00 55 1018.3
20260902170525 89 319 4.0 0.0 185.39 0.00 0.00 56 1018.5
20260902165524 88 262 5.0 0.0 185.39 0.00 0.00 58 1018.5
20260902165025 88 269 4.0 0.0 185.39 0.00 0.00 58 1018.5
20260902164524 88 291 3.0 0.0 185.39 0.00 0.00 59 1018.4
20260902164024 88 321 1.0 0.0 185.39 0.00 0.00 58 1018.4
20260902163024 87 305 0.0 0.0 185.39 0.00 0.00 59 1018.5
20260902162524 87 290 6.0 0.0 185.39 0.00 0.00 60 1018.5
20260902162024 87 285 4.0 0.0 185.39 0.00 0.00 60 1018.5
20260902161524 86 132 0.0 0.0 185.39 0.00 0.00 62 1018.5
20260902161024 86 194 2.0 0.0 185.39 0.00 0.00 62 1018.5
20260902160524 86 267 6.0 0.0 185.39 0.00 0.00 62 1018.5
20260902160024 86 208 1.0 0.0 185.39 0.00 0.00 64 1018.5
20260902155028 86 318 6.0 0.0 185.39 0.00 0.00 65 1018.5
20260902154524 85 242 1.0 0.0 185.39 0.00 0.00 65 1018.6
20260902152524 84 346 0.0 0.0 185.39 0.00 0.00 67 1018.8
20260902151024 83 225 4.0 0.0 185.39 0.00 0.00 68 1018.6